{"data":{"norad_id":62211,"epoch":"2026-09-21T07:45:57.227328Z","epoch_age_seconds":106672,"freshness":"FRESH","line1":"1 62211U 24229V   26264.32357902  .00007729  00000+0  29003-3 0  9993","line2":"2 62211  42.9989 245.6508 0001277 256.0244 104.0466 15.27587268100480","mean_motion":15.27587268,"eccentricity":0.0001277,"inclination_deg":42.9989,"raan_deg":245.6508,"arg_perigee_deg":256.0244,"mean_anomaly_deg":104.0466,"bstar":0.00029003,"rev_number":10048,"period_min":94.266300208519,"perigee_km":482.15116243395,"apogee_km":483.90350380463,"semimajor_km":6861.1643331193,"source":"CELESTRAK","updated_at":"2026-09-22T09:00:49.543012Z"}}